Year,Month,Day,Hour,Minute,Value (Times are PST for windspeed in km/hr)
2016,10,16,00,00,2.70
2016,10,16,00,01,1.20
2016,10,16,00,02,0.40
2016,10,16,00,03,0.30
2016,10,16,00,04,2.40
2016,10,16,00,05,4.00
2016,10,16,00,06,0.50
2016,10,16,00,07,1.10
2016,10,16,00,08,2.10
2016,10,16,00,09,3.20
2016,10,16,00,10,3.00
2016,10,16,00,11,2.10
2016,10,16,00,12,2.50
2016,10,16,00,13,1.70
2016,10,16,00,14,2.00
2016,10,16,00,15,1.90
2016,10,16,00,16,4.70
2016,10,16,00,17,5.60
2016,10,16,00,18,5.10
2016,10,16,00,19,3.90
2016,10,16,00,20,6.30
2016,10,16,00,21,5.50
2016,10,16,00,22,7.10
2016,10,16,00,23,9.20
2016,10,16,00,24,4.40
2016,10,16,00,25,5.20
2016,10,16,00,26,6.80
2016,10,16,00,27,5.50
2016,10,16,00,28,2.30
2016,10,16,00,29,6.40
2016,10,16,00,30,3.90
2016,10,16,00,31,3.70
2016,10,16,00,32,8.40
2016,10,16,00,33,4.60
2016,10,16,00,34,3.70
2016,10,16,00,35,1.70
2016,10,16,00,36,3.50
2016,10,16,00,37,2.60
2016,10,16,00,38,3.40
2016,10,16,00,39,5.50
2016,10,16,00,40,3.10
2016,10,16,00,41,4.90
2016,10,16,00,42,3.80
2016,10,16,00,43,2.30
2016,10,16,00,44,4.20
2016,10,16,00,45,4.00
2016,10,16,00,46,4.30
2016,10,16,00,47,3.30
2016,10,16,00,48,4.80
2016,10,16,00,49,3.90
2016,10,16,00,50,5.40
2016,10,16,00,51,3.80
2016,10,16,00,52,3.10
2016,10,16,00,53,5.10
2016,10,16,00,54,3.90
2016,10,16,00,55,4.00
2016,10,16,00,56,2.60
2016,10,16,00,57,2.90
2016,10,16,00,58,4.50
2016,10,16,00,59,5.00
2016,10,16,01,00,5.60
2016,10,16,01,01,3.40
2016,10,16,01,02,7.40
2016,10,16,01,03,5.40
2016,10,16,01,04,7.40
2016,10,16,01,05,7.70
2016,10,16,01,06,7.40
2016,10,16,01,07,5.60
2016,10,16,01,08,8.20
2016,10,16,01,09,3.10
2016,10,16,01,10,3.00
2016,10,16,01,11,3.10
2016,10,16,01,12,3.10
2016,10,16,01,13,3.90
2016,10,16,01,14,3.50
2016,10,16,01,15,3.50
2016,10,16,01,16,7.60
2016,10,16,01,17,6.10
2016,10,16,01,18,5.80
2016,10,16,01,19,10.10
2016,10,16,01,20,5.50
2016,10,16,01,21,5.80
2016,10,16,01,22,3.80
2016,10,16,01,23,4.70
2016,10,16,01,24,4.30
2016,10,16,01,25,3.60
2016,10,16,01,26,3.40
2016,10,16,01,27,5.30
2016,10,16,01,28,2.70
2016,10,16,01,29,3.60
2016,10,16,01,30,5.80
2016,10,16,01,31,4.40
2016,10,16,01,32,2.30
2016,10,16,01,33,5.00
2016,10,16,01,34,2.00
2016,10,16,01,35,3.10
2016,10,16,01,36,3.40
2016,10,16,01,37,2.40
2016,10,16,01,38,2.70
2016,10,16,01,39,4.40
2016,10,16,01,40,2.70
2016,10,16,01,41,2.60
2016,10,16,01,42,3.40
2016,10,16,01,43,2.90
2016,10,16,01,44,3.30
2016,10,16,01,45,3.10
2016,10,16,01,46,3.90
2016,10,16,01,47,3.80
2016,10,16,01,48,3.40
2016,10,16,01,49,1.70
2016,10,16,01,50,3.40
2016,10,16,01,51,3.30
2016,10,16,01,52,3.10
2016,10,16,01,53,5.10
2016,10,16,01,54,4.00
2016,10,16,01,55,4.50
2016,10,16,01,56,3.00
2016,10,16,01,57,2.70
2016,10,16,01,58,3.50
2016,10,16,01,59,4.80
2016,10,16,02,00,3.10
2016,10,16,02,01,3.10
2016,10,16,02,02,3.50
2016,10,16,02,03,2.70
2016,10,16,02,04,2.40
2016,10,16,02,05,2.50
2016,10,16,02,06,2.80
2016,10,16,02,07,2.60
2016,10,16,02,08,3.20
2016,10,16,02,09,2.40
2016,10,16,02,10,2.30
2016,10,16,02,11,2.90
2016,10,16,02,12,2.40
2016,10,16,02,13,2.30
2016,10,16,02,14,2.20
2016,10,16,02,15,0.50
2016,10,16,02,16,1.60
2016,10,16,02,17,0.90
2016,10,16,02,18,1.30
2016,10,16,02,19,1.90
2016,10,16,02,20,2.70
2016,10,16,02,21,3.70
2016,10,16,02,22,2.60
2016,10,16,02,23,4.40
2016,10,16,02,24,3.90
2016,10,16,02,25,2.60
2016,10,16,02,26,1.50
2016,10,16,02,27,1.90
2016,10,16,02,28,1.40
2016,10,16,02,29,2.00
2016,10,16,02,30,1.20
2016,10,16,02,31,1.80
2016,10,16,02,32,2.60
2016,10,16,02,33,2.50
2016,10,16,02,34,3.90
2016,10,16,02,35,1.50
2016,10,16,02,36,3.60
2016,10,16,02,37,1.60
2016,10,16,02,38,3.10
2016,10,16,02,39,1.70
2016,10,16,02,40,3.40
2016,10,16,02,41,5.50
2016,10,16,02,42,4.10
2016,10,16,02,43,2.30
2016,10,16,02,44,4.70
2016,10,16,02,45,3.80
2016,10,16,02,46,7.60
2016,10,16,02,47,4.80
2016,10,16,02,48,5.00
2016,10,16,02,49,2.60
2016,10,16,02,50,2.30
2016,10,16,02,51,4.50
2016,10,16,02,52,2.50
2016,10,16,02,53,2.80
2016,10,16,02,54,3.80
2016,10,16,02,55,2.80
2016,10,16,02,56,5.20
2016,10,16,02,57,3.10
2016,10,16,02,58,2.90
2016,10,16,02,59,1.90
2016,10,16,03,00,2.80
2016,10,16,03,01,1.80
2016,10,16,03,02,3.80
2016,10,16,03,03,2.90
2016,10,16,03,04,4.70
2016,10,16,03,05,2.50
2016,10,16,03,06,2.50
2016,10,16,03,07,1.80
2016,10,16,03,08,4.30
2016,10,16,03,09,3.70
2016,10,16,03,10,1.50
2016,10,16,03,11,2.20
2016,10,16,03,12,2.00
2016,10,16,03,13,1.30
2016,10,16,03,14,2.00
2016,10,16,03,15,3.70
2016,10,16,03,16,3.10
2016,10,16,03,17,2.50
2016,10,16,03,18,5.10
2016,10,16,03,19,4.70
2016,10,16,03,20,4.60
2016,10,16,03,21,4.00
2016,10,16,03,22,7.70
2016,10,16,03,23,2.60
2016,10,16,03,24,1.40
2016,10,16,03,25,1.40
2016,10,16,03,26,3.10
2016,10,16,03,27,3.40
2016,10,16,03,28,2.50
2016,10,16,03,29,5.10
2016,10,16,03,30,5.40
2016,10,16,03,31,2.90
2016,10,16,03,32,5.10
2016,10,16,03,33,4.60
2016,10,16,03,34,3.70
2016,10,16,03,35,2.10
2016,10,16,03,36,2.30
2016,10,16,03,37,3.90
2016,10,16,03,38,2.20
2016,10,16,03,39,3.90
2016,10,16,03,40,2.80
2016,10,16,03,41,2.30
2016,10,16,03,42,1.50
2016,10,16,03,43,1.30
2016,10,16,03,44,1.40
2016,10,16,03,45,2.60
2016,10,16,03,46,2.70
2016,10,16,03,47,1.90
2016,10,16,03,48,1.00
2016,10,16,03,49,2.20
2016,10,16,03,50,3.90
2016,10,16,03,51,2.20
2016,10,16,03,52,1.80
2016,10,16,03,53,0.40
2016,10,16,03,54,0.60
2016,10,16,03,55,1.80
2016,10,16,03,56,1.70
2016,10,16,03,57,1.70
2016,10,16,03,58,1.70
2016,10,16,03,59,1.50
2016,10,16,04,00,0.30
2016,10,16,04,01,0.50
2016,10,16,04,02,1.00
2016,10,16,04,03,1.00
2016,10,16,04,04,1.40
2016,10,16,04,05,1.40
2016,10,16,04,06,2.40
2016,10,16,04,07,2.00
2016,10,16,04,08,1.10
2016,10,16,04,09,1.50
2016,10,16,04,10,1.70
2016,10,16,04,11,1.50
2016,10,16,04,12,1.90
2016,10,16,04,13,1.90
2016,10,16,04,14,2.20
2016,10,16,04,15,1.20
2016,10,16,04,16,1.20
2016,10,16,04,17,1.80
2016,10,16,04,18,2.10
2016,10,16,04,19,2.00
2016,10,16,04,20,1.70
2016,10,16,04,21,0.90
2016,10,16,04,22,0.80
2016,10,16,04,23,1.10
2016,10,16,04,24,0.10
2016,10,16,04,25,0.00
2016,10,16,04,26,3.30
2016,10,16,04,27,2.70
2016,10,16,04,28,0.20
2016,10,16,04,29,0.00
2016,10,16,04,30,0.00
2016,10,16,04,31,0.80
2016,10,16,04,32,4.20
2016,10,16,04,33,3.90
2016,10,16,04,34,3.50
2016,10,16,04,35,1.80
2016,10,16,04,36,1.10
2016,10,16,04,37,0.50
2016,10,16,04,38,0.40
2016,10,16,04,39,2.40
2016,10,16,04,40,1.70
2016,10,16,04,41,1.90
2016,10,16,04,42,2.30
2016,10,16,04,43,2.20
2016,10,16,04,44,4.30
2016,10,16,04,45,3.00
2016,10,16,04,46,2.20
2016,10,16,04,47,2.20
2016,10,16,04,48,0.50
2016,10,16,04,49,2.60
2016,10,16,04,50,1.20
2016,10,16,04,51,1.50
2016,10,16,04,52,0.90
2016,10,16,04,53,0.50
2016,10,16,04,54,0.80
2016,10,16,04,55,1.40
2016,10,16,04,56,0.60
2016,10,16,04,57,0.30
2016,10,16,04,58,0.50
2016,10,16,04,59,0.00
2016,10,16,05,00,2.00
2016,10,16,05,01,1.10
2016,10,16,05,02,0.90
2016,10,16,05,03,1.30
2016,10,16,05,04,1.50
2016,10,16,05,05,1.80
2016,10,16,05,06,2.10
2016,10,16,05,07,2.50
2016,10,16,05,08,2.40
2016,10,16,05,09,1.70
2016,10,16,05,10,2.80
2016,10,16,05,11,2.30
2016,10,16,05,12,1.00
2016,10,16,05,13,1.00
2016,10,16,05,14,2.80
2016,10,16,05,15,1.80
2016,10,16,05,16,1.60
2016,10,16,05,17,0.30
2016,10,16,05,18,1.00
2016,10,16,05,19,1.00
2016,10,16,05,20,0.20
2016,10,16,05,21,1.30
2016,10,16,05,22,0.20
2016,10,16,05,23,0.50
2016,10,16,05,24,3.40
2016,10,16,05,25,2.80
2016,10,16,05,26,3.10
2016,10,16,05,27,4.50
2016,10,16,05,28,5.30
2016,10,16,05,29,4.60
2016,10,16,05,30,2.90
2016,10,16,05,31,1.50
2016,10,16,05,32,1.30
2016,10,16,05,33,0.50
2016,10,16,05,34,0.00
2016,10,16,05,35,0.00
2016,10,16,05,36,0.00
2016,10,16,05,37,0.10
2016,10,16,05,38,1.90
2016,10,16,05,39,1.90
2016,10,16,05,40,1.50
2016,10,16,05,41,1.50
2016,10,16,05,42,0.30
2016,10,16,05,43,0.60
2016,10,16,05,44,1.50
2016,10,16,05,45,2.80
2016,10,16,05,46,2.00
2016,10,16,05,47,0.80
2016,10,16,05,48,0.00
2016,10,16,05,49,0.00
2016,10,16,05,50,0.10
2016,10,16,05,51,0.20
2016,10,16,05,52,0.20
2016,10,16,05,53,3.10
2016,10,16,05,54,1.50
2016,10,16,05,55,2.10
2016,10,16,05,56,4.50
2016,10,16,05,57,1.90
2016,10,16,05,58,5.20
2016,10,16,05,59,8.60
2016,10,16,06,00,7.40
2016,10,16,06,01,6.30
2016,10,16,06,02,3.70
2016,10,16,06,03,2.30
2016,10,16,06,04,3.00
2016,10,16,06,05,2.40
2016,10,16,06,06,0.90
2016,10,16,06,07,1.20
2016,10,16,06,08,1.40
2016,10,16,06,09,2.70
2016,10,16,06,10,2.80
2016,10,16,06,11,5.30
2016,10,16,06,12,5.60
2016,10,16,06,13,5.50
2016,10,16,06,14,5.70
2016,10,16,06,15,4.90
2016,10,16,06,16,6.30
2016,10,16,06,17,8.10
2016,10,16,06,18,4.70
2016,10,16,06,19,3.20
2016,10,16,06,20,4.10
2016,10,16,06,21,5.60
2016,10,16,06,22,6.30
2016,10,16,06,23,4.60
2016,10,16,06,24,4.50
2016,10,16,06,25,2.00
2016,10,16,06,26,5.00
2016,10,16,06,27,6.60
2016,10,16,06,28,4.00
2016,10,16,06,29,4.30
2016,10,16,06,30,10.30
2016,10,16,06,31,4.40
2016,10,16,06,32,6.20
2016,10,16,06,33,10.00
2016,10,16,06,34,4.40
2016,10,16,06,35,4.10
2016,10,16,06,36,3.60
2016,10,16,06,37,5.00
2016,10,16,06,38,4.40
2016,10,16,06,39,6.80
2016,10,16,06,40,5.70
2016,10,16,06,41,4.50
2016,10,16,06,42,3.40
2016,10,16,06,43,1.90
2016,10,16,06,44,1.70
2016,10,16,06,45,0.90
2016,10,16,06,46,1.30
2016,10,16,06,47,7.90
2016,10,16,06,48,5.90
2016,10,16,06,49,4.60
2016,10,16,06,50,3.90
2016,10,16,06,51,1.00
2016,10,16,06,52,0.60
2016,10,16,06,53,2.80
2016,10,16,06,54,2.40
2016,10,16,06,55,4.50
2016,10,16,06,56,7.20
2016,10,16,06,57,5.00
2016,10,16,06,58,3.50
2016,10,16,06,59,5.60
2016,10,16,07,00,3.50
2016,10,16,07,01,4.60
2016,10,16,07,02,6.10
2016,10,16,07,03,9.70
2016,10,16,07,04,3.70
2016,10,16,07,05,4.10
2016,10,16,07,06,4.50
2016,10,16,07,07,4.60
2016,10,16,07,08,7.30
2016,10,16,07,09,5.30
2016,10,16,07,10,2.60
2016,10,16,07,11,7.20
2016,10,16,07,12,8.70
2016,10,16,07,13,7.60
2016,10,16,07,14,10.40
2016,10,16,07,15,7.70
2016,10,16,07,16,5.30
2016,10,16,07,17,6.90
2016,10,16,07,18,3.10
2016,10,16,07,19,6.80
2016,10,16,07,20,5.20
2016,10,16,07,21,9.10
2016,10,16,07,22,7.50
2016,10,16,07,23,12.30
2016,10,16,07,24,6.70
2016,10,16,07,25,6.50
2016,10,16,07,26,8.00
2016,10,16,07,27,8.20
2016,10,16,07,28,5.10
2016,10,16,07,29,4.90
2016,10,16,07,30,10.80
2016,10,16,07,31,7.70
2016,10,16,07,32,3.10
2016,10,16,07,33,5.20
2016,10,16,07,34,4.30
2016,10,16,07,35,3.50
2016,10,16,07,36,5.70
2016,10,16,07,37,3.40
2016,10,16,07,38,6.00
2016,10,16,07,39,6.40
2016,10,16,07,40,3.50
2016,10,16,07,41,5.80
2016,10,16,07,42,3.00
2016,10,16,07,43,8.60
2016,10,16,07,44,4.30
2016,10,16,07,45,8.50
2016,10,16,07,46,7.80
2016,10,16,07,47,6.50
2016,10,16,07,48,4.30
2016,10,16,07,49,6.10
2016,10,16,07,50,5.60
2016,10,16,07,51,2.50
2016,10,16,07,52,4.30
2016,10,16,07,53,3.90
2016,10,16,07,54,3.40
2016,10,16,07,55,15.10
2016,10,16,07,56,7.10
2016,10,16,07,57,9.00
2016,10,16,07,58,4.90
2016,10,16,07,59,4.10
2016,10,16,08,00,5.00
2016,10,16,08,01,4.90
2016,10,16,08,02,1.90
2016,10,16,08,03,5.20
2016,10,16,08,04,4.60
2016,10,16,08,05,4.30
2016,10,16,08,06,5.20
2016,10,16,08,07,3.30
2016,10,16,08,08,2.30
2016,10,16,08,09,3.30
2016,10,16,08,10,3.60
2016,10,16,08,11,6.30
2016,10,16,08,12,6.60
2016,10,16,08,13,3.70
2016,10,16,08,14,2.90
2016,10,16,08,15,7.80
2016,10,16,08,16,3.70
2016,10,16,08,17,4.30
2016,10,16,08,18,3.10
2016,10,16,08,19,1.90
2016,10,16,08,20,6.10
2016,10,16,08,21,2.40
2016,10,16,08,22,0.90
2016,10,16,08,23,2.70
2016,10,16,08,24,4.70
2016,10,16,08,25,3.90
2016,10,16,08,26,3.40
2016,10,16,08,27,2.70
2016,10,16,08,28,2.80
2016,10,16,08,29,2.40
2016,10,16,08,30,1.50
2016,10,16,08,31,2.20
2016,10,16,08,32,1.20
2016,10,16,08,33,0.20
2016,10,16,08,34,1.50
2016,10,16,08,35,1.50
2016,10,16,08,36,1.20
2016,10,16,08,37,2.80
2016,10,16,08,38,6.50
2016,10,16,08,39,1.40
2016,10,16,08,40,1.10
2016,10,16,08,41,3.50
2016,10,16,08,42,2.60
2016,10,16,08,43,1.70
2016,10,16,08,44,1.00
2016,10,16,08,45,1.40
2016,10,16,08,46,2.30
2016,10,16,08,47,0.50
2016,10,16,08,48,1.50
2016,10,16,08,49,1.00
2016,10,16,08,50,1.30
2016,10,16,08,51,3.20
2016,10,16,08,52,3.10
2016,10,16,08,53,4.30
2016,10,16,08,54,3.10
2016,10,16,08,55,1.30
2016,10,16,08,56,1.00
2016,10,16,08,57,1.20
2016,10,16,08,58,0.20
2016,10,16,08,59,1.40
2016,10,16,09,00,2.30
2016,10,16,09,01,1.10
2016,10,16,09,02,1.30
2016,10,16,09,03,0.90
2016,10,16,09,04,0.20
2016,10,16,09,05,1.10
2016,10,16,09,06,2.40
2016,10,16,09,07,2.70
2016,10,16,09,08,3.00
2016,10,16,09,09,3.00
2016,10,16,09,10,2.60
2016,10,16,09,11,1.40
2016,10,16,09,12,1.90
2016,10,16,09,13,4.60
2016,10,16,09,14,3.20
2016,10,16,09,15,3.90
2016,10,16,09,16,2.10
2016,10,16,09,17,1.50
2016,10,16,09,18,1.50
2016,10,16,09,19,1.80
2016,10,16,09,20,0.90
2016,10,16,09,21,1.80
2016,10,16,09,22,1.00
2016,10,16,09,23,1.90
2016,10,16,09,24,1.60
2016,10,16,09,25,4.40
2016,10,16,09,26,5.70
2016,10,16,09,27,4.30
2016,10,16,09,28,3.80
2016,10,16,09,29,3.00
2016,10,16,09,30,1.40
2016,10,16,09,31,4.70
2016,10,16,09,32,4.60
2016,10,16,09,33,2.60
2016,10,16,09,34,0.70
2016,10,16,09,35,0.70
2016,10,16,09,36,1.40
2016,10,16,09,37,0.80
2016,10,16,09,38,0.40
2016,10,16,09,39,3.60
2016,10,16,09,40,3.00
2016,10,16,09,41,4.50
2016,10,16,09,42,2.70
2016,10,16,09,43,7.40
2016,10,16,09,44,7.70
2016,10,16,09,45,5.10
2016,10,16,09,46,4.60
2016,10,16,09,47,7.60
2016,10,16,09,48,2.80
2016,10,16,09,49,3.50
2016,10,16,09,50,3.40
2016,10,16,09,51,5.10
2016,10,16,09,52,7.60
2016,10,16,09,53,5.70
2016,10,16,09,54,7.10
2016,10,16,09,55,5.10
2016,10,16,09,56,5.90
2016,10,16,09,57,4.10
2016,10,16,09,58,8.30
2016,10,16,09,59,3.60
2016,10,16,10,00,3.90
2016,10,16,10,01,2.30
2016,10,16,10,02,2.90
2016,10,16,10,03,3.30
2016,10,16,10,04,1.60
2016,10,16,10,05,4.70
2016,10,16,10,06,7.10
2016,10,16,10,07,8.90
2016,10,16,10,08,4.10
2016,10,16,10,09,5.20
2016,10,16,10,10,6.60
2016,10,16,10,11,4.50
2016,10,16,10,12,4.70
2016,10,16,10,13,2.30
2016,10,16,10,14,5.40
2016,10,16,10,15,4.30
2016,10,16,10,16,2.40
2016,10,16,10,17,2.80
2016,10,16,10,18,3.10
2016,10,16,10,19,3.60
2016,10,16,10,20,2.70
2016,10,16,10,21,1.40
2016,10,16,10,22,1.20
2016,10,16,10,23,1.10
2016,10,16,10,24,1.60
2016,10,16,10,25,5.00
2016,10,16,10,26,2.90
2016,10,16,10,27,3.50
2016,10,16,10,28,5.60
2016,10,16,10,29,3.30
2016,10,16,10,30,2.20
2016,10,16,10,31,2.00
2016,10,16,10,32,2.20
2016,10,16,10,33,2.60
2016,10,16,10,34,2.70
2016,10,16,10,35,0.60
2016,10,16,10,36,0.20
2016,10,16,10,37,3.10
2016,10,16,10,38,3.90
2016,10,16,10,39,1.90
2016,10,16,10,40,2.10
2016,10,16,10,41,2.50
2016,10,16,10,42,0.60
2016,10,16,10,43,4.10
2016,10,16,10,44,1.50
2016,10,16,10,45,1.90
2016,10,16,10,46,4.20
2016,10,16,10,47,9.60
2016,10,16,10,48,5.30
2016,10,16,10,49,5.20
2016,10,16,10,50,8.10
2016,10,16,10,51,5.10
2016,10,16,10,52,7.10
2016,10,16,10,53,5.60
2016,10,16,10,54,2.80
2016,10,16,10,55,6.00
2016,10,16,10,56,4.10
2016,10,16,10,57,5.20
2016,10,16,10,58,4.00
2016,10,16,10,59,4.20
2016,10,16,11,00,4.70
2016,10,16,11,01,4.10
2016,10,16,11,02,3.50
2016,10,16,11,03,4.40
2016,10,16,11,04,3.00
2016,10,16,11,05,1.90
2016,10,16,11,06,4.30
2016,10,16,11,07,4.40
2016,10,16,11,08,6.00
2016,10,16,11,09,3.90
2016,10,16,11,10,1.60
2016,10,16,11,11,1.80
2016,10,16,11,12,2.60
2016,10,16,11,13,2.30
2016,10,16,11,14,4.40
2016,10,16,11,15,7.20
2016,10,16,11,16,9.30
2016,10,16,11,17,2.20
2016,10,16,11,18,3.20
2016,10,16,11,19,1.40
2016,10,16,11,20,4.60
2016,10,16,11,21,2.40
2016,10,16,11,22,4.50
2016,10,16,11,23,7.50
2016,10,16,11,24,4.00
2016,10,16,11,25,5.50
2016,10,16,11,26,2.70
2016,10,16,11,27,4.80
2016,10,16,11,28,4.50
2016,10,16,11,29,1.90
2016,10,16,11,30,5.20
2016,10,16,11,31,4.20
2016,10,16,11,32,3.90
2016,10,16,11,33,3.40
2016,10,16,11,34,2.30
2016,10,16,11,35,1.80
2016,10,16,11,36,0.30
2016,10,16,11,37,1.00
2016,10,16,11,38,4.20
2016,10,16,11,39,2.20
2016,10,16,11,40,9.10
2016,10,16,11,41,8.90
2016,10,16,11,42,7.80
2016,10,16,11,43,4.40
2016,10,16,11,44,5.70
2016,10,16,11,45,3.50
2016,10,16,11,46,8.50
2016,10,16,11,47,8.00
2016,10,16,11,48,7.50
2016,10,16,11,49,3.50
2016,10,16,11,50,5.30
2016,10,16,11,51,4.50
2016,10,16,11,52,5.60
2016,10,16,11,53,8.50
2016,10,16,11,54,4.10
2016,10,16,11,55,3.60
2016,10,16,11,56,4.90
2016,10,16,11,57,5.20
2016,10,16,11,58,6.80
2016,10,16,11,59,2.10
2016,10,16,12,00,2.70
2016,10,16,12,01,1.90
2016,10,16,12,02,3.00
2016,10,16,12,03,2.90
2016,10,16,12,04,2.30
2016,10,16,12,05,4.70
2016,10,16,12,06,5.10
2016,10,16,12,07,7.40
2016,10,16,12,08,9.10
2016,10,16,12,09,6.10
2016,10,16,12,10,2.50
2016,10,16,12,11,1.10
2016,10,16,12,12,1.80
2016,10,16,12,13,2.90
2016,10,16,12,14,5.20
2016,10,16,12,15,6.70
2016,10,16,12,16,9.70
2016,10,16,12,17,3.30
2016,10,16,12,18,2.00
2016,10,16,12,19,3.60
2016,10,16,12,20,3.70
2016,10,16,12,21,6.00
2016,10,16,12,22,2.30
2016,10,16,12,23,0.70
2016,10,16,12,24,3.00
2016,10,16,12,25,1.70
2016,10,16,12,26,6.20
2016,10,16,12,27,4.60
2016,10,16,12,28,3.80
2016,10,16,12,29,2.90
2016,10,16,12,30,4.20
2016,10,16,12,31,3.30
2016,10,16,12,32,3.50
2016,10,16,12,33,1.90
2016,10,16,12,34,1.90
2016,10,16,12,35,2.20
2016,10,16,12,36,1.70
2016,10,16,12,37,1.30
2016,10,16,12,38,0.00
2016,10,16,12,39,1.20
2016,10,16,12,40,1.50
2016,10,16,12,41,1.10
2016,10,16,12,42,1.40
2016,10,16,12,43,0.80
2016,10,16,12,44,0.40
2016,10,16,12,45,0.20
2016,10,16,12,46,2.00
2016,10,16,12,47,2.30
2016,10,16,12,48,4.10
2016,10,16,12,49,2.60
2016,10,16,12,50,2.50
2016,10,16,12,51,0.90
2016,10,16,12,52,2.20
2016,10,16,12,53,3.30
2016,10,16,12,54,3.40
2016,10,16,12,55,2.10
2016,10,16,12,56,1.90
2016,10,16,12,57,1.40
2016,10,16,12,58,1.90
2016,10,16,12,59,1.60
2016,10,16,13,00,2.50
2016,10,16,13,01,1.90
2016,10,16,13,02,1.10
2016,10,16,13,03,1.50
2016,10,16,13,04,2.10
2016,10,16,13,05,2.50
2016,10,16,13,06,2.30
2016,10,16,13,07,3.60
2016,10,16,13,08,2.00
2016,10,16,13,09,1.80
2016,10,16,13,10,1.30
2016,10,16,13,11,1.90
2016,10,16,13,12,2.50
2016,10,16,13,13,0.40
2016,10,16,13,14,1.50
2016,10,16,13,15,2.00
2016,10,16,13,16,1.60
2016,10,16,13,17,2.00
2016,10,16,13,18,1.80
2016,10,16,13,19,4.50
2016,10,16,13,20,2.90
2016,10,16,13,21,1.80
2016,10,16,13,22,3.50
2016,10,16,13,23,3.10
2016,10,16,13,24,3.60
2016,10,16,13,25,2.60
2016,10,16,13,26,0.60
2016,10,16,13,27,0.60
2016,10,16,13,28,0.60
2016,10,16,13,29,0.60
2016,10,16,13,30,2.50
2016,10,16,13,31,0.70
2016,10,16,13,32,1.50
2016,10,16,13,33,1.50
2016,10,16,13,34,3.20
2016,10,16,13,35,4.00
2016,10,16,13,36,3.40
2016,10,16,13,37,1.30
2016,10,16,13,38,0.60
2016,10,16,13,39,2.20
2016,10,16,13,40,1.80
2016,10,16,13,41,0.60
2016,10,16,13,42,1.10
2016,10,16,13,43,2.40
2016,10,16,13,44,3.50
2016,10,16,13,45,3.00
2016,10,16,13,46,2.40
2016,10,16,13,47,2.00
2016,10,16,13,48,2.30
2016,10,16,13,49,3.00
2016,10,16,13,50,3.40
2016,10,16,13,51,2.60
2016,10,16,13,52,3.10
2016,10,16,13,53,2.70
2016,10,16,13,54,2.40
2016,10,16,13,55,2.70
2016,10,16,13,56,1.70
2016,10,16,13,57,2.80
2016,10,16,13,58,2.10
2016,10,16,13,59,1.20
2016,10,16,14,00,1.70
2016,10,16,14,01,0.60
2016,10,16,14,02,0.80
2016,10,16,14,03,0.30
2016,10,16,14,04,0.80
2016,10,16,14,05,2.20
2016,10,16,14,06,3.30
2016,10,16,14,07,2.30
2016,10,16,14,08,1.20
2016,10,16,14,09,1.40
2016,10,16,14,10,1.30
2016,10,16,14,11,1.40
2016,10,16,14,12,1.90
2016,10,16,14,13,1.10
2016,10,16,14,14,2.60
2016,10,16,14,15,3.40
2016,10,16,14,16,2.50
2016,10,16,14,17,2.20
2016,10,16,14,18,2.60
2016,10,16,14,19,1.90
2016,10,16,14,20,2.30
2016,10,16,14,21,2.10
2016,10,16,14,22,0.60
2016,10,16,14,23,0.50
2016,10,16,14,24,0.10
2016,10,16,14,25,0.20
2016,10,16,14,26,0.20
2016,10,16,14,27,1.20
2016,10,16,14,28,1.50
2016,10,16,14,29,1.50
2016,10,16,14,30,2.20
2016,10,16,14,31,1.20
2016,10,16,14,32,0.60
2016,10,16,14,33,1.70
2016,10,16,14,34,3.10
2016,10,16,14,35,1.60
2016,10,16,14,36,2.20
2016,10,16,14,37,2.20
2016,10,16,14,38,0.80
2016,10,16,14,39,1.10
2016,10,16,14,40,0.90
2016,10,16,14,41,0.80
2016,10,16,14,42,0.80
2016,10,16,14,43,0.30
2016,10,16,14,44,0.10
2016,10,16,14,45,0.00
2016,10,16,14,46,0.10
2016,10,16,14,47,0.00
2016,10,16,14,48,0.60
2016,10,16,14,49,1.70
2016,10,16,14,50,0.40
2016,10,16,14,51,0.20
2016,10,16,14,52,0.60
2016,10,16,14,53,0.50
2016,10,16,14,54,1.30
2016,10,16,14,55,2.80
2016,10,16,14,56,1.60
2016,10,16,14,57,0.80
2016,10,16,14,58,0.30
2016,10,16,14,59,1.10
2016,10,16,15,00,0.60
2016,10,16,15,01,2.20
2016,10,16,15,02,2.30
2016,10,16,15,03,2.10
2016,10,16,15,04,1.70
2016,10,16,15,05,1.50
2016,10,16,15,06,1.20
2016,10,16,15,07,0.10
2016,10,16,15,08,0.10
2016,10,16,15,09,0.40
2016,10,16,15,10,0.40
2016,10,16,15,11,0.20
2016,10,16,15,12,1.00
2016,10,16,15,13,0.70
2016,10,16,15,14,0.60
2016,10,16,15,15,0.20
2016,10,16,15,16,1.50
2016,10,16,15,17,1.10
2016,10,16,15,18,1.00
2016,10,16,15,19,0.20
2016,10,16,15,20,0.00
2016,10,16,15,21,0.20
2016,10,16,15,22,1.00
2016,10,16,15,23,2.60
2016,10,16,15,24,2.30
2016,10,16,15,25,1.80
2016,10,16,15,26,0.70
2016,10,16,15,27,1.00
2016,10,16,15,28,1.00
2016,10,16,15,29,3.30
2016,10,16,15,30,3.40
2016,10,16,15,31,0.60
2016,10,16,15,32,1.30
2016,10,16,15,33,3.30
2016,10,16,15,34,2.40
2016,10,16,15,35,0.60
2016,10,16,15,36,1.30
2016,10,16,15,37,0.20
2016,10,16,15,38,0.40
2016,10,16,15,39,1.20
2016,10,16,15,40,3.00
2016,10,16,15,41,1.20
2016,10,16,15,42,1.50
2016,10,16,15,43,2.50
2016,10,16,15,44,1.90
2016,10,16,15,45,0.60
2016,10,16,15,46,0.80
2016,10,16,15,47,1.50
2016,10,16,15,48,2.50
2016,10,16,15,49,2.80
2016,10,16,15,50,3.40
2016,10,16,15,51,2.50
2016,10,16,15,52,2.50
2016,10,16,15,53,2.10
2016,10,16,15,54,0.90
2016,10,16,15,55,2.00
2016,10,16,15,56,0.90
2016,10,16,15,57,1.40
2016,10,16,15,58,0.30
2016,10,16,15,59,0.00
2016,10,16,16,00,0.40
2016,10,16,16,01,1.20
2016,10,16,16,02,1.80
2016,10,16,16,03,0.80
2016,10,16,16,04,1.90
2016,10,16,16,05,0.60
2016,10,16,16,06,0.00
2016,10,16,16,07,0.20
2016,10,16,16,08,0.20
2016,10,16,16,09,0.60
2016,10,16,16,10,0.70
2016,10,16,16,11,0.50
2016,10,16,16,12,1.50
2016,10,16,16,13,0.80
2016,10,16,16,14,0.00
2016,10,16,16,15,0.10
2016,10,16,16,16,0.50
2016,10,16,16,17,0.20
2016,10,16,16,18,0.80
2016,10,16,16,19,0.90
2016,10,16,16,20,1.40
2016,10,16,16,21,0.50
2016,10,16,16,22,0.10
2016,10,16,16,23,0.00
2016,10,16,16,24,0.20
2016,10,16,16,25,0.70
2016,10,16,16,26,0.90
2016,10,16,16,27,0.10
2016,10,16,16,28,0.00
2016,10,16,16,29,0.00
2016,10,16,16,30,0.00
2016,10,16,16,31,0.20
2016,10,16,16,32,0.10
2016,10,16,16,33,0.80
2016,10,16,16,34,0.90
2016,10,16,16,35,0.90
2016,10,16,16,36,0.90
2016,10,16,16,37,0.20
2016,10,16,16,38,0.50
2016,10,16,16,39,0.40
2016,10,16,16,40,0.60
2016,10,16,16,41,0.50
2016,10,16,16,42,0.80
2016,10,16,16,43,1.10
2016,10,16,16,44,1.60
2016,10,16,16,45,1.20
2016,10,16,16,46,0.60
2016,10,16,16,47,0.60
2016,10,16,16,48,0.10
2016,10,16,16,49,0.40
2016,10,16,16,50,1.50
2016,10,16,16,51,1.70
2016,10,16,16,52,0.80
2016,10,16,16,53,0.60
2016,10,16,16,54,1.50
2016,10,16,16,55,1.40
2016,10,16,16,56,0.40
2016,10,16,16,57,1.10
2016,10,16,16,58,1.10
2016,10,16,16,59,0.90
2016,10,16,17,00,1.30
2016,10,16,17,01,1.80
2016,10,16,17,02,0.20
2016,10,16,17,03,0.00
2016,10,16,17,04,1.70
2016,10,16,17,05,2.70
2016,10,16,17,06,2.60
2016,10,16,17,07,3.40
2016,10,16,17,08,1.70
2016,10,16,17,09,0.60
2016,10,16,17,10,0.70
2016,10,16,17,11,0.50
2016,10,16,17,12,1.80
2016,10,16,17,13,1.00
2016,10,16,17,14,0.80
2016,10,16,17,15,0.60
2016,10,16,17,16,0.50
2016,10,16,17,17,0.10
2016,10,16,17,18,0.50
2016,10,16,17,19,1.10
2016,10,16,17,20,1.20
2016,10,16,17,21,1.00
2016,10,16,17,22,1.50
2016,10,16,17,23,0.50
2016,10,16,17,24,3.00
2016,10,16,17,25,1.50
2016,10,16,17,26,1.10
2016,10,16,17,27,2.40
2016,10,16,17,28,2.50
2016,10,16,17,29,2.30
2016,10,16,17,30,2.90
2016,10,16,17,31,2.10
2016,10,16,17,32,1.80
2016,10,16,17,33,1.50
2016,10,16,17,34,1.40
2016,10,16,17,35,0.60
2016,10,16,17,36,0.80
2016,10,16,17,37,1.50
2016,10,16,17,38,3.50
2016,10,16,17,39,2.10
2016,10,16,17,40,1.40
2016,10,16,17,41,3.80
2016,10,16,17,42,2.60
2016,10,16,17,43,3.20
2016,10,16,17,44,0.50
2016,10,16,17,45,0.60
2016,10,16,17,46,2.30
2016,10,16,17,47,3.30
2016,10,16,17,48,2.50
2016,10,16,17,49,1.50
2016,10,16,17,50,1.70
2016,10,16,17,51,1.50
2016,10,16,17,52,2.30
2016,10,16,17,53,1.40
2016,10,16,17,54,2.70
2016,10,16,17,55,1.50
2016,10,16,17,56,1.50
2016,10,16,17,57,5.70
2016,10,16,17,58,3.60
2016,10,16,17,59,3.90
2016,10,16,18,00,3.70
2016,10,16,18,01,4.00
2016,10,16,18,02,1.80
2016,10,16,18,03,1.00
2016,10,16,18,04,1.80
2016,10,16,18,05,3.20
2016,10,16,18,06,3.30